weather.gov     
National Weather Service

Terminal Aerodrome Forecast
NWS Homepage
This page is being discontinued on March 12, 2014.
The same data is available at this site. Please update your bookmarks.
Thank you, and we apologize for the inconvenience.
Please send an email to SR-SRH.Webmaster@noaa.gov with any concerns.


Current Version
Previous Version:    01  02  03  04  05  06  07  08  09  10  11  12  13  14  15  16  17  18  19  20  21  22  23  
[Printable]
472
FTUS44 KBMX 300500
TAFTOI
TAF
KTOI 300533Z 3006/3106 00000KT P6SM BKN100
      TEMPO 3009/3012 4SM BR
     FM301300 17007KT P6SM SCT050 BKN100
     FM301800 20010KT P6SM VCTS SCT050CB BKN100
     FM310100 VRB03KT P6SM SCT050 BKN200=


U.S. Dept. of Commerce
NOAA National Weather Service
1325 East West Highway
Silver Spring, MD 20910
E-mail: w-nws.webmaster@noaa.gov
Page last modified: May 16, 2007
NATIONAL WEATHER SERVICE: for Safety, for Work, for Fun - FOR LIFE